Regional Weather Roundup
Issued by NWS

Home | Current Version | Previous Version | Graphics & Text | Print | Product List | Glossary On
Versions: 1 2 3 4 5 6 7 8 9 10 11 12 13 14 15 16 17 18 19 20 21 22 23 24 25 26 27 28 29 30 31 32 33 34 35 36 37 38 39 40 41 42 43 44 45 46 47 48 49 50
000
ASUS43 KLOT 022100
RWRIL

ILLINOIS REGIONAL WEATHER ROUNDUP
NATIONAL WEATHER SERVICE CHICAGO/ROMEOVILLE IL
400 PM CDT SUN AUG 02 2015

NOTE: "FAIR" INDICATES FEW OR NO CLOUDS BELOW 12,000 FEET WITH NO
SIGNIFICANT WEATHER AND/OR OBSTRUCTIONS TO VISIBILITY.

* THESE STATIONS ARE NOT UNDER NWS QUALITY CONTROL. THEY ALSO MAY NOT
  REPORT WEATHER SUCH AS PRECIPITATION OR FOG.

ILZ001-002-007-009-015-016-024-022200-
NORTHWEST ILLINOIS

CITY           SKY/WX    TMP DP  RH WIND       PRES   REMARKS
MOLINE         MOSUNNY   90  73  57 SW20G25   29.74F HX  98
STERLING*      SUNNY     90  73  58 W13G22    29.70F HX  98
$$

ILZ003-004-008-010-011-017-018-022200-
NORTH CENTRAL ILLINOIS

CITY           SKY/WX    TMP DP  RH WIND       PRES   REMARKS
ROCKFORD       MOSUNNY   90  70  51 SW18G29   29.71F HX  95
$$

ILZ005-006-012>014-019>023-022200-
NORTHEAST ILLINOIS

CITY           SKY/WX    TMP DP  RH WIND       PRES   REMARKS
CHICAGO-OHARE  PTSUNNY   87  72  60 SW18G25   29.71F HX  93
CHICAGO-MIDWAY CLOUDY    91  69  48 SW17G26   29.72F HX  96
AURORA         MOSUNNY   90  70  51 SW17G30   29.74F HX  95
WAUKEGAN       MOSUNNY   88  68  51 SW25G37   29.66F HX  91
DUPAGE AIRPORT PTSUNNY   88  71  57 SW22G29   29.73F HX  94
WHEELING       PTSUNNY   89  68  49 SW18G29   29.71F HX  93
NORTHERLY ISL    N/A     89  67  47 S14         N/A  HX  92
$$

LMZ740>746-022200-
SOUTHERN LAKE MICHIGAN

STATION/POSITION SKY/WX   TEMP    WIND        PRES    VSBY  WAVE
                          AIR SEA DIR/SP/G                  HT/PER
                          (F)     (DEG/KT/KT) (MB)    (MI)  (FT/S)
HARRISON CRIB              86     220/ 23/ 27   N/A
BURNHAM HARBOR             88     230/ 14/ 20   N/A
CALUMET HARBOR             88     220/  9/ 16   N/A
BURNS HARBOR               88     220/ 23     1007.8F
MICHIGAN CITY              88     190/ 26/ 31   N/A
MICHIGAN CITY 6N           83 74  240/ 16/ 21   N/A           4/ 4
ST. JOSEPH                 79 74  250/ 14/ 14   N/A           2/ 3
$$

ILZ025>027-034>036-040-047-049-050-058-095>099-022200-
WEST-CENTRAL ILLINOIS

CITY           SKY/WX    TMP DP  RH WIND       PRES   REMARKS
QUINCY         SUNNY     90  72  55 SW13      29.84F HX  97
MACOMB*        MOSUNNY   89  73  58 SW10G18   29.83F HX  96
$$

ILZ028>032-037-038-041>044-048-051>054-059>061-022200-
CENTRAL ILLINOIS

CITY           SKY/WX    TMP DP  RH WIND       PRES   REMARKS
DECATUR        SUNNY     92  69  47 SW15      29.85F HX  97
PEORIA         SUNNY     93  69  45 W15G24    29.80F HX  98
SPRINGFIELD    SUNNY     91  72  53 SW9       29.84F HX  98
TAYLORVILLE    NOT AVBL
$$

ILZ033-039-045-046-055>057-062-063-022200-
EAST-CENTRAL ILLINOIS

CITY           SKY/WX    TMP DP  RH WIND       PRES   REMARKS
CHAMPAIGN      MOSUNNY   89  71  55 SW7       29.86F HX  95
MATTOON        SUNNY     89  65  44 SW8       29.86F HX  91
$$

ILZ079-100>102-022200-
SOUTHWEST ILLINOIS

CITY           SKY/WX    TMP DP  RH WIND       PRES   REMARKS
CAHOKIA*       MOSUNNY   95  65  37 SW7       29.86F HX  97
$$

ILZ064>066-069>071-074>076-080>082-084>086-088>090-092>094-022200-
SOUTH-CENTRAL ILLINOIS

CITY           SKY/WX    TMP DP  RH WIND       PRES   REMARKS
CARBONDALE     MOSUNNY   90  72  55 SW8       29.90F HX  97
MARION         PTSUNNY   90  72  55 SW7       29.92F HX  96
MT. VERNON     PTSUNNY   93  72  49 S10       29.90F HX 100
SALEM*         SUNNY     92  69  46 SW9       29.88F HX  97
$$

ILZ067-068-072-073-078-083-087-091-022200-
SOUTHEAST ILLINOIS

CITY           SKY/WX    TMP DP  RH WIND       PRES   REMARKS
LAWRENCEVILLE  SUNNY     90  69  50 SW12      29.89F HX  94
FLORA*         SUNNY     90  67  46 SW9       29.89F HX  94
HARRISBURG*    MOSUNNY   88  71  56 SW5       29.92F HX  94
ROBINSON*      SUNNY     89  71  55 SW10      29.89F HX  94
CARMI*         MOSUNNY   87  69  55 S8        29.90F HX  91
$$

ABBREVIATIONS USED IN REMARKS
   TC - TEMPERATURE IN CELSIUS
  WCI - WIND CHILL INDEX
   HX - HEAT INDEX
  VSB - VISIBILITY
$$



USA.gov is the U.S. government's official web portal to all federal, state and local government web resources and services.